Regional Weather Roundup
Issued by NWS

Home | Current Version | Previous Version | Text Only | Print | Product List | Glossary Off
Versions: 1 2 3 4 5 6 7 8 9 10 11 12 13 14 15 16 17 18 19 20 21 22 23 24 25 26 27 28 29 30 31 32 33 34 35 36 37 38 39 40 41 42 43 44 45 46 47 48 49 50

000
ASUS43 KBIS 060902
RWRND

NORTH DAKOTA REGIONAL WEATHER ROUNDUP
NATIONAL WEATHER SERVICE BISMARCK ND
400 AM CDT FRI MAY 06 2016

NOTE: "FAIR" INDICATES FEW OR NO CLOUDS BELOW 12,000 FEET WITH NO
SIGNIFICANT WEATHER AND/OR OBSTRUCTIONS TO VISIBILITY.


NDZ001>003-009>011-017-061000-
NORTHWEST NORTH DAKOTA

CITY           SKY/WX    TMP DP  RH WIND       PRES   REMARKS
WILLISTON      CLOUDY    63  43  48 N17       29.85R
MINOT          CLOUDY    70  39  32 W10       29.74S
MINOT AFB      CLOUDY    60  42  50 W10       29.74R
$$

NDZ018>021-031>035-040>046-061000-
SOUTHWEST NORTH DAKOTA

CITY           SKY/WX    TMP DP  RH WIND       PRES   REMARKS
BISMARCK       CLEAR     49  45  86 CALM      29.78S
DICKINSON      PTCLDY    54  44  69 W8        29.79F
GARRISON         N/A     56  43  61 CALM      29.76F
HETTINGER ARPT CLOUDY    46  42  86 CALM      29.84F
$$

NDZ004>008-012>016-024-026-027-054-061000-
NORTHEAST NORTH DAKOTA

CITY           SKY/WX    TMP DP  RH WIND       PRES   REMARKS
GRAND FORKS    CLEAR     64  48  56 SW12      29.68F
GRND FRKS AFB  CLEAR     64  48  55 W10       29.69F
DEVILS LAKE    CLOUDY    62  45  53 SW9       29.72S
$$

NDZ022-023-025-028>030-036>039-047>053-061000-
SOUTHEAST NORTH DAKOTA

CITY           SKY/WX    TMP DP  RH WIND       PRES   REMARKS
FARGO          MOCLDY    64  42  44 S9        29.75S
JAMESTOWN      CLEAR     53  46  77 S8        29.75F
$$




USA.gov is the U.S. government's official web portal to all federal, state and local government web resources and services.